,,,PA_Meas_PMT16A,,PR_Meas_QMR101_102,,RH_Meas_QMH101,,SR_Meas_QMS101,,TA_Meas_QMH101,,GenWind,,GenWind,
date,time,status,PA,status,PR,status,RH,status,SR,status,TA,status,DirAvg,status,SpdAvg,
2012-05-14, 00:00:04,VALID,1009.22,VALID,0,VALID,104,VALID,0,VALID,22.6225,VALID,38,VALID,0.192188,
2012-05-14, 00:01:04,VALID,1009.24,VALID,0,VALID,104,VALID,0,VALID,22.6437,VALID,38,VALID,0.00351562,
2012-05-14, 00:02:04,VALID,1009.17,VALID,0,VALID,104,VALID,0,VALID,22.603,VALID,38,VALID,0.119922,
2012-05-14, 00:03:04,VALID,1009.15,VALID,0,VALID,104,VALID,0,VALID,22.5835,VALID,38,VALID,0.145703,
2012-05-14, 00:04:04,VALID,1009.13,VALID,0,VALID,104,VALID,0,VALID,22.603,VALID,38,VALID,0.141406,
2012-05-14, 00:05:04,VALID,1009.15,VALID,0,VALID,104,VALID,0,VALID,22.603,VALID,38,VALID,0.078125,
2012-05-14, 00:06:04,VALID,1009.16,VALID,0,VALID,104,VALID,0,VALID,22.6047,VALID,38,VALID,0,
2012-05-14, 00:07:04,VALID,1009.12,VALID,0,VALID,104,VALID,0,VALID,22.5835,VALID,38,VALID,0,
2012-05-14, 00:08:04,VALID,1009.15,VALID,0,VALID,104,VALID,0.112112,VALID,22.5835,VALID,38,VALID,0,
2012-05-14, 00:09:04,VALID,1009.12,VALID,0,VALID,104,VALID,0,VALID,22.5835,VALID,38,VALID,0,
2012-05-14, 00:10:04,VALID,1009.1,VALID,0,VALID,104,VALID,0,VALID,22.5835,VALID,39,VALID,0.00507812,
2012-05-14, 00:11:04,VALID,1009.07,VALID,0,VALID,104,VALID,0,VALID,22.564,VALID,136,VALID,0.667578,
2012-05-14, 00:12:04,VALID,1009.05,VALID,0,VALID,104,VALID,0,VALID,22.564,VALID,136,VALID,0.420312,
2012-05-14, 00:13:04,VALID,1009.02,VALID,0,VALID,104,VALID,0,VALID,22.5446,VALID,136,VALID,0.510156,
2012-05-14, 00:14:04,VALID,1009.02,VALID,0,VALID,104,VALID,0,VALID,22.5251,VALID,136,VALID,0.259375,
2012-05-14, 00:15:04,VALID,1008.95,VALID,0,VALID,104,VALID,0,VALID,22.5251,VALID,136,VALID,0.34375,
2012-05-14, 00:16:04,VALID,1008.93,VALID,0,VALID,104,VALID,0,VALID,22.5446,VALID,136,VALID,0.553906,
2012-05-14, 00:17:04,VALID,1008.92,VALID,0,VALID,104,VALID,0,VALID,22.5852,VALID,136,VALID,0.480469,
2012-05-14, 00:18:04,VALID,1008.9,VALID,0,VALID,104,VALID,0,VALID,22.564,VALID,136,VALID,0.423438,
2012-05-14, 00:19:04,VALID,1008.89,VALID,0,VALID,104,VALID,0,VALID,22.5446,VALID,136,VALID,0.425391,
2012-05-14, 00:20:04,VALID,1008.86,VALID,0,VALID,104,VALID,0,VALID,22.5446,VALID,136,VALID,0.382813,
2012-05-14, 00:21:04,VALID,1008.83,VALID,0,VALID,104,VALID,0,VALID,22.5446,VALID,136,VALID,0.276172,
2012-05-14, 00:22:04,VALID,1008.82,VALID,0,VALID,104,VALID,0,VALID,22.5446,VALID,136,VALID,0.283203,
2012-05-14, 00:23:04,VALID,1008.79,VALID,0,VALID,104,VALID,0,VALID,22.5658,VALID,136,VALID,0.109766,
2012-05-14, 00:24:04,VALID,1008.74,VALID,0,VALID,104,VALID,0,VALID,22.5251,VALID,136,VALID,0.353125,
2012-05-14, 00:25:04,VALID,1008.69,VALID,0,VALID,104,VALID,0,VALID,22.5463,VALID,136,VALID,0.487109,
2012-05-14, 00:26:04,VALID,1008.69,VALID,0,VALID,104,VALID,0,VALID,22.5251,VALID,136,VALID,0.345703,
2012-05-14, 00:27:04,VALID,1008.65,VALID,0,VALID,104,VALID,0,VALID,22.5463,VALID,136,VALID,0.333594,
2012-05-14, 00:28:04,VALID,1008.62,VALID,0,VALID,104,VALID,0,VALID,22.5251,VALID,136,VALID,0.584375,
2012-05-14, 00:29:04,VALID,1008.62,VALID,0,VALID,104,VALID,0,VALID,22.5446,VALID,100,VALID,0.591406,
2012-05-14, 00:30:04,VALID,1008.57,VALID,0,VALID,104,VALID,0,VALID,22.5463,VALID,100,VALID,0.528125,
2012-05-14, 00:31:04,VALID,1008.57,VALID,0,VALID,104,VALID,0,VALID,22.5446,VALID,100,VALID,0.274609,
2012-05-14, 00:32:04,VALID,1008.53,VALID,0,VALID,104,VALID,0,VALID,22.5446,VALID,100,VALID,0.149609,
2012-05-14, 00:33:04,VALID,1008.56,VALID,0,VALID,104,VALID,0,VALID,22.5446,VALID,100,VALID,0,
2012-05-14, 00:34:04,VALID,1008.5,VALID,0,VALID,104,VALID,0,VALID,22.5446,VALID,100,VALID,0,
2012-05-14, 00:35:04,VALID,1008.53,VALID,0,VALID,104,VALID,0,VALID,22.5658,VALID,100,VALID,0,
2012-05-14, 00:36:04,VALID,1008.46,VALID,0,VALID,104,VALID,0,VALID,22.5446,VALID,100,VALID,0,
2012-05-14, 00:37:04,VALID,1008.45,VALID,0,VALID,104,VALID,0,VALID,22.5446,VALID,100,VALID,0,
2012-05-14, 00:38:04,VALID,1008.44,VALID,0,VALID,104,VALID,0,VALID,22.5446,VALID,100,VALID,0,
2012-05-14, 00:39:04,VALID,1008.4,VALID,0,VALID,104,VALID,0,VALID,22.5446,VALID,100,VALID,0.0046875,
2012-05-14, 00:40:04,VALID,1008.39,VALID,0,VALID,104,VALID,0,VALID,22.5251,VALID,100,VALID,0.38125,
2012-05-14, 00:41:04,VALID,1008.37,VALID,0,VALID,104,VALID,0,VALID,22.5251,VALID,100,VALID,0.224609,
2012-05-14, 00:42:04,VALID,1008.35,VALID,0,VALID,104,VALID,0,VALID,22.5251,VALID,100,VALID,0.102344,
2012-05-14, 00:43:04,VALID,1008.37,VALID,0,VALID,104,VALID,0,VALID,22.5251,VALID,100,VALID,0,
2012-05-14, 00:44:04,VALID,1008.33,VALID,0,VALID,104,VALID,0,VALID,22.5251,VALID,100,VALID,0.303516,
2012-05-14, 00:45:04,VALID,1008.33,VALID,0,VALID,104,VALID,0,VALID,22.5446,VALID,100,VALID,0.201172,
2012-05-14, 00:46:04,VALID,1008.29,VALID,0,VALID,104,VALID,0,VALID,22.5658,VALID,100,VALID,0,
2012-05-14, 00:47:04,VALID,1008.27,VALID,0,VALID,104,VALID,0,VALID,22.5446,VALID,100,VALID,0,
2012-05-14, 00:48:04,VALID,1008.22,VALID,0,VALID,104,VALID,0,VALID,22.5446,VALID,100,VALID,0.172656,
2012-05-14, 00:49:04,VALID,1008.17,VALID,0,VALID,104,VALID,0,VALID,22.5446,VALID,100,VALID,0,
2012-05-14, 00:50:04,VALID,1008.2,VALID,0,VALID,104,VALID,0,VALID,22.5446,VALID,100,VALID,0,
2012-05-14, 00:51:04,VALID,1008.17,VALID,0,VALID,104,VALID,0,VALID,22.5446,VALID,100,VALID,0,
2012-05-14, 00:52:04,VALID,1008.15,VALID,0,VALID,104,VALID,0,VALID,22.564,VALID,100,VALID,0,
2012-05-14, 00:53:04,VALID,1008.17,VALID,0,VALID,104,VALID,0.112112,VALID,22.603,VALID,100,VALID,0.183203,
2012-05-14, 00:54:04,VALID,1008.12,VALID,0,VALID,104,VALID,0.112112,VALID,22.5818,VALID,100,VALID,0.111328,
2012-05-14, 00:55:04,VALID,1008.09,VALID,0,VALID,104,VALID,0.112112,VALID,22.603,VALID,100,VALID,0,
2012-05-14, 00:56:04,VALID,1008.07,VALID,0,VALID,104,VALID,0.112112,VALID,22.603,VALID,100,VALID,0.238281,
2012-05-14, 00:57:04,VALID,1008.05,VALID,0,VALID,104,VALID,0,VALID,22.5835,VALID,100,VALID,0.358594,
2012-05-14, 00:58:04,VALID,1008.01,VALID,0,VALID,104,VALID,0.112112,VALID,22.5623,VALID,83,VALID,0.277344,
2012-05-14, 00:59:04,VALID,1007.98,VALID,0,VALID,104,VALID,0.112112,VALID,22.5429,VALID,82,VALID,0.301562,
2012-05-14, 01:00:04,VALID,1007.96,VALID,0,VALID,104,VALID,0,VALID,22.5251,VALID,82,VALID,0,
2012-05-14, 01:01:04,VALID,1007.95,VALID,0,VALID,104,VALID,0.112112,VALID,22.5251,VALID,82,VALID,0,
2012-05-14, 01:02:04,VALID,1007.92,VALID,0,VALID,104,VALID,0.112112,VALID,22.5251,VALID,82,VALID,0,
2012-05-14, 01:03:04,VALID,1007.85,VALID,0,VALID,104,VALID,0.112112,VALID,22.5251,VALID,82,VALID,0,
2012-05-14, 01:04:04,VALID,1007.86,VALID,0,VALID,104,VALID,0.112112,VALID,22.4844,VALID,82,VALID,0,
2012-05-14, 01:05:04,VALID,1007.83,VALID,0,VALID,104,VALID,0.112112,VALID,22.4861,VALID,82,VALID,0,
2012-05-14, 01:06:04,VALID,1007.82,VALID,0,VALID,104,VALID,0.112112,VALID,22.5056,VALID,82,VALID,0.0226563,
2012-05-14, 01:07:04,VALID,1007.77,VALID,0,VALID,104,VALID,0.112112,VALID,22.4861,VALID,82,VALID,0.226953,
2012-05-14, 01:08:04,VALID,1007.74,VALID,0,VALID,104,VALID,0,VALID,22.4667,VALID,82,VALID,0.0414063,
2012-05-14, 01:09:04,VALID,1007.67,VALID,0,VALID,104,VALID,0.112112,VALID,22.4455,VALID,82,VALID,0,
2012-05-14, 01:10:04,VALID,1007.67,VALID,0,VALID,104,VALID,0.112112,VALID,22.4455,VALID,82,VALID,0.534375,
2012-05-14, 01:11:04,VALID,1007.61,VALID,0,VALID,104,VALID,0.112112,VALID,22.4667,VALID,82,VALID,0,
2012-05-14, 01:12:04,VALID,1007.6,VALID,0,VALID,104,VALID,0.112112,VALID,22.4667,VALID,82,VALID,0.150781,
2012-05-14, 01:13:04,VALID,1007.55,VALID,0,VALID,104,VALID,0.112112,VALID,22.4667,VALID,82,VALID,0.0257812,
2012-05-14, 01:14:04,VALID,1007.5,VALID,0,VALID,104,VALID,0.112112,VALID,22.4455,VALID,82,VALID,0.009375,
2012-05-14, 01:15:04,VALID,1007.44,VALID,0,VALID,104,VALID,0.112112,VALID,22.4472,VALID,82,VALID,0.0375,
2012-05-14, 01:16:04,VALID,1007.37,VALID,0,VALID,104,VALID,0.112112,VALID,22.4455,VALID,82,VALID,0.578516,
2012-05-14, 01:17:04,VALID,1007.32,VALID,0,VALID,104,VALID,0,VALID,22.4667,VALID,83,VALID,0.622266,
2012-05-14, 01:18:04,VALID,1007.25,VALID,0,VALID,104,VALID,0.112112,VALID,22.4861,VALID,92,VALID,0.965234,
2012-05-14, 01:19:04,VALID,1007.16,VALID,0,VALID,104,VALID,0,VALID,22.4455,VALID,92,VALID,1.05781,
2012-05-14, 01:20:04,VALID,1007.14,VALID,0,VALID,104,VALID,0,VALID,22.4861,VALID,113,VALID,1.05078,
2012-05-14, 01:21:04,VALID,1007.1,VALID,0,VALID,104,VALID,0,VALID,22.5056,VALID,133,VALID,1.13477,
2012-05-14, 01:22:04,VALID,1007.1,VALID,0,VALID,104,VALID,0.112112,VALID,22.5056,VALID,122,VALID,1.53633,
2012-05-14, 01:23:04,VALID,1007.14,VALID,0,VALID,104,VALID,0,VALID,22.4861,VALID,136,VALID,1.25,
2012-05-14, 01:24:04,VALID,1007.12,VALID,0,VALID,104,VALID,0.112112,VALID,22.4667,VALID,120,VALID,0.443359,
2012-05-14, 01:25:04,VALID,1007.13,VALID,0,VALID,104,VALID,0,VALID,22.4455,VALID,116,VALID,0.503516,
2012-05-14, 01:26:04,VALID,1007.12,VALID,0,VALID,104,VALID,0.112112,VALID,22.4667,VALID,78,VALID,0.523438,
2012-05-14, 01:27:04,VALID,1007.11,VALID,0,VALID,104,VALID,0.112112,VALID,22.4455,VALID,77,VALID,0.486719,
2012-05-14, 01:28:04,VALID,1007.09,VALID,0,VALID,104,VALID,0.112112,VALID,22.4667,VALID,77,VALID,0.116406,
2012-05-14, 01:29:04,VALID,1007.12,VALID,0,VALID,104,VALID,0.112112,VALID,22.4861,VALID,77,VALID,0.249609,
2012-05-14, 01:30:04,VALID,1007.12,VALID,0,VALID,104,VALID,0.112112,VALID,22.4861,VALID,77,VALID,0.183984,
2012-05-14, 01:31:04,VALID,1007.1,VALID,0,VALID,104,VALID,0,VALID,22.4861,VALID,77,VALID,0.344922,
2012-05-14, 01:32:04,VALID,1007.1,VALID,0,VALID,104,VALID,0.112112,VALID,22.465,VALID,101,VALID,0.573047,
2012-05-14, 01:33:04,VALID,1007.1,VALID,0,VALID,104,VALID,0,VALID,22.4861,VALID,101,VALID,0.520703,
2012-05-14, 01:34:04,VALID,1007.1,VALID,0,VALID,104,VALID,0.112112,VALID,22.465,VALID,119,VALID,0.737891,
2012-05-14, 01:35:04,VALID,1007.11,VALID,0,VALID,104,VALID,0,VALID,22.4861,VALID,123,VALID,0.865234,
2012-05-14, 01:36:04,VALID,1007.11,VALID,0,VALID,104,VALID,0,VALID,22.4861,VALID,123,VALID,0.65,
2012-05-14, 01:37:04,VALID,1007.1,VALID,0,VALID,104,VALID,0,VALID,22.4667,VALID,123,VALID,0.474609,
2012-05-14, 01:38:04,VALID,1007.09,VALID,0,VALID,104,VALID,0,VALID,22.4667,VALID,123,VALID,0,
2012-05-14, 01:39:04,VALID,1007.09,VALID,0,VALID,104,VALID,0.112112,VALID,22.4667,VALID,123,VALID,0,
2012-05-14, 01:40:04,VALID,1007.06,VALID,0,VALID,104,VALID,0,VALID,22.4472,VALID,122,VALID,0.314453,
2012-05-14, 01:41:04,VALID,1007.08,VALID,0,VALID,104,VALID,0.112112,VALID,22.4472,VALID,119,VALID,0.258594,
2012-05-14, 01:42:04,VALID,1007.07,VALID,0,VALID,104,VALID,0.112112,VALID,22.4472,VALID,119,VALID,0.304297,
2012-05-14, 01:43:04,VALID,1007.09,VALID,0,VALID,104,VALID,0,VALID,22.4472,VALID,69,VALID,0.495703,
2012-05-14, 01:44:04,VALID,1007.07,VALID,0,VALID,104,VALID,0.112112,VALID,22.4472,VALID,42,VALID,0.417969,
2012-05-14, 01:45:04,VALID,1007.05,VALID,0,VALID,104,VALID,0.112112,VALID,22.4472,VALID,42,VALID,0.298047,
2012-05-14, 01:46:04,VALID,1007.03,VALID,0,VALID,104,VALID,0.112112,VALID,22.4472,VALID,42,VALID,0.126563,
2012-05-14, 01:47:04,VALID,1007.04,VALID,0,VALID,104,VALID,0.112112,VALID,22.426,VALID,42,VALID,0,
2012-05-14, 01:48:04,VALID,1007.03,VALID,0,VALID,104,VALID,0.112112,VALID,22.4065,VALID,42,VALID,0,
2012-05-14, 01:49:04,VALID,1007.04,VALID,0,VALID,104,VALID,0,VALID,22.4472,VALID,42,VALID,0,
2012-05-14, 01:50:04,VALID,1007.04,VALID,0,VALID,104,VALID,0,VALID,22.4065,VALID,42,VALID,0,
2012-05-14, 01:51:04,VALID,1007.03,VALID,0,VALID,104,VALID,0,VALID,22.426,VALID,42,VALID,0,
2012-05-14, 01:52:04,VALID,1007.06,VALID,0,VALID,104,VALID,0.112112,VALID,22.4277,VALID,42,VALID,0,
2012-05-14, 01:53:04,VALID,1007.09,VALID,0,VALID,104,VALID,0.112112,VALID,22.4082,VALID,42,VALID,0,
2012-05-14, 01:54:04,VALID,1007.09,VALID,0,VALID,104,VALID,0.112112,VALID,22.4082,VALID,42,VALID,0,
2012-05-14, 01:55:04,VALID,1007.11,VALID,0,VALID,104,VALID,0.112112,VALID,22.4082,VALID,42,VALID,0,
2012-05-14, 01:56:04,VALID,1007.11,VALID,0,VALID,104,VALID,0,VALID,22.4082,VALID,42,VALID,0.257031,
2012-05-14, 01:57:04,VALID,1007.1,VALID,0,VALID,104,VALID,0,VALID,22.4277,VALID,42,VALID,0.297656,
2012-05-14, 01:58:04,VALID,1007.08,VALID,0,VALID,104,VALID,0,VALID,22.4277,VALID,42,VALID,0.190625,
2012-05-14, 01:59:04,VALID,1007.06,VALID,0,VALID,104,VALID,0,VALID,22.4082,VALID,42,VALID,0.0582031,
2012-05-14, 02:00:04,VALID,1007.06,VALID,0,VALID,104,VALID,0,VALID,22.387,VALID,42,VALID,0,
2012-05-14, 02:01:04,VALID,1007.08,VALID,0,VALID,104,VALID,0,VALID,22.3887,VALID,42,VALID,0,
2012-05-14, 02:02:04,VALID,1007.03,VALID,0,VALID,104,VALID,0.112112,VALID,22.3887,VALID,42,VALID,0.203125,
2012-05-14, 02:03:04,VALID,1007.06,VALID,0,VALID,104,VALID,0.112112,VALID,22.4082,VALID,50,VALID,0.690625,
2012-05-14, 02:04:04,VALID,1007.07,VALID,0,VALID,104,VALID,0.112112,VALID,22.3887,VALID,82,VALID,0.636328,
2012-05-14, 02:05:04,VALID,1007.08,VALID,0,VALID,104,VALID,0,VALID,22.3887,VALID,84,VALID,0.415625,
2012-05-14, 02:06:04,VALID,1007.08,VALID,0,VALID,104,VALID,0,VALID,22.3887,VALID,84,VALID,0.382422,
2012-05-14, 02:07:04,VALID,1007.1,VALID,0,VALID,104,VALID,0.112112,VALID,22.4082,VALID,84,VALID,0.214453,
2012-05-14, 02:08:04,VALID,1007.08,VALID,0,VALID,104,VALID,0.112112,VALID,22.4277,VALID,84,VALID,0.252734,
2012-05-14, 02:09:04,VALID,1007.07,VALID,0,VALID,104,VALID,0,VALID,22.4277,VALID,84,VALID,0,
2012-05-14, 02:10:04,VALID,1007.04,VALID,0,VALID,104,VALID,0,VALID,22.4277,VALID,84,VALID,0,
2012-05-14, 02:11:04,VALID,1007.03,VALID,0,VALID,104,VALID,0,VALID,22.4082,VALID,84,VALID,0.09375,
2012-05-14, 02:12:04,VALID,1007.03,VALID,0,VALID,104,VALID,0.112112,VALID,22.387,VALID,84,VALID,0,
2012-05-14, 02:13:04,VALID,1007,VALID,0,VALID,104,VALID,0,VALID,22.3887,VALID,84,VALID,0.131641,
2012-05-14, 02:14:04,VALID,1006.98,VALID,0,VALID,104,VALID,0.112112,VALID,22.3887,VALID,84,VALID,0,
2012-05-14, 02:15:04,VALID,1007.01,VALID,0,VALID,104,VALID,0.112112,VALID,22.3693,VALID,84,VALID,0,
2012-05-14, 02:16:04,VALID,1007.03,VALID,0,VALID,104,VALID,0,VALID,22.3887,VALID,84,VALID,0,
2012-05-14, 02:17:04,VALID,1007,VALID,0,VALID,104,VALID,0,VALID,22.4082,VALID,84,VALID,0,
2012-05-14, 02:18:04,VALID,1007.04,VALID,0,VALID,104,VALID,0.112112,VALID,22.387,VALID,84,VALID,0,
2012-05-14, 02:19:04,VALID,1007.03,VALID,0,VALID,104,VALID,0.112112,VALID,22.4277,VALID,84,VALID,0.165625,
2012-05-14, 02:20:04,VALID,1007.03,VALID,0,VALID,104,VALID,0,VALID,22.4082,VALID,84,VALID,0.104297,
2012-05-14, 02:21:04,VALID,1007.06,VALID,0,VALID,104,VALID,0,VALID,22.4082,VALID,84,VALID,0.187891,
2012-05-14, 02:22:04,VALID,1007.07,VALID,0,VALID,104,VALID,0.112112,VALID,22.4082,VALID,84,VALID,0,
2012-05-14, 02:23:04,VALID,1007.06,VALID,0,VALID,104,VALID,0.112112,VALID,22.387,VALID,84,VALID,0,
2012-05-14, 02:24:04,VALID,1007.07,VALID,0,VALID,104,VALID,0.112112,VALID,22.4082,VALID,84,VALID,0,
2012-05-14, 02:25:04,VALID,1007.08,VALID,0,VALID,104,VALID,0,VALID,22.4082,VALID,84,VALID,0,
2012-05-14, 02:26:04,VALID,1007.07,VALID,0,VALID,104,VALID,0,VALID,22.387,VALID,84,VALID,0,
2012-05-14, 02:27:04,VALID,1007.08,VALID,0,VALID,104,VALID,0,VALID,22.4065,VALID,84,VALID,0.308594,
2012-05-14, 02:28:04,VALID,1007.06,VALID,0,VALID,104,VALID,0,VALID,22.4082,VALID,84,VALID,0.530469,
2012-05-14, 02:29:04,VALID,1007.07,VALID,0,VALID,104,VALID,0.112112,VALID,22.4082,VALID,97,VALID,0.665625,
2012-05-14, 02:30:04,VALID,1007.09,VALID,0,VALID,104,VALID,0.112112,VALID,22.387,VALID,139,VALID,0.616016,
2012-05-14, 02:31:04,VALID,1007.08,VALID,0,VALID,104,VALID,0,VALID,22.3887,VALID,139,VALID,0.561328,
2012-05-14, 02:32:04,VALID,1007.05,VALID,0,VALID,104,VALID,0.112112,VALID,22.3693,VALID,139,VALID,0.462109,
2012-05-14, 02:33:04,VALID,1007.07,VALID,0,VALID,104,VALID,0.112112,VALID,22.3693,VALID,139,VALID,0.15625,
2012-05-14, 02:34:04,VALID,1007.03,VALID,0,VALID,104,VALID,0.112112,VALID,22.3693,VALID,139,VALID,0,
2012-05-14, 02:35:04,VALID,1007.05,VALID,0,VALID,104,VALID,0.112112,VALID,22.3693,VALID,139,VALID,0,
2012-05-14, 02:36:04,VALID,1007.06,VALID,0,VALID,104,VALID,0.112112,VALID,22.3481,VALID,139,VALID,0,
2012-05-14, 02:37:04,VALID,1007.05,VALID,0,VALID,104,VALID,0.112112,VALID,22.3693,VALID,139,VALID,0,
2012-05-14, 02:38:04,VALID,1007.09,VALID,0,VALID,104,VALID,0,VALID,22.371,VALID,139,VALID,0,
2012-05-14, 02:39:04,VALID,1007.1,VALID,0,VALID,104,VALID,0,VALID,22.371,VALID,139,VALID,0,
2012-05-14, 02:40:04,VALID,1007.1,VALID,0,VALID,104,VALID,0,VALID,22.3693,VALID,139,VALID,0.180859,
2012-05-14, 02:41:04,VALID,1007.08,VALID,0,VALID,104,VALID,0,VALID,22.3904,VALID,139,VALID,0.121484,
2012-05-14, 02:42:04,VALID,1007.1,VALID,0,VALID,104,VALID,0,VALID,22.3904,VALID,139,VALID,0,
2012-05-14, 02:43:04,VALID,1007.1,VALID,0,VALID,104,VALID,0,VALID,22.3904,VALID,139,VALID,0,
2012-05-14, 02:44:04,VALID,1007.09,VALID,0,VALID,104,VALID,0,VALID,22.3693,VALID,139,VALID,0.0363281,
2012-05-14, 02:45:04,VALID,1007.09,VALID,0,VALID,104,VALID,0,VALID,22.3904,VALID,139,VALID,0,
2012-05-14, 02:46:04,VALID,1007.08,VALID,0,VALID,104,VALID,0,VALID,22.3904,VALID,139,VALID,0,
2012-05-14, 02:47:04,VALID,1007.09,VALID,0,VALID,104,VALID,0,VALID,22.3693,VALID,139,VALID,0,
2012-05-14, 02:48:04,VALID,1007.11,VALID,0,VALID,104,VALID,0,VALID,22.3904,VALID,139,VALID,0,
2012-05-14, 02:49:04,VALID,1007.11,VALID,0,VALID,104,VALID,0,VALID,22.3693,VALID,139,VALID,0,
2012-05-14, 02:50:04,VALID,1007.13,VALID,0,VALID,104,VALID,0,VALID,22.3904,VALID,139,VALID,0,
2012-05-14, 02:51:04,VALID,1007.14,VALID,0,VALID,104,VALID,0,VALID,22.3904,VALID,139,VALID,0,
2012-05-14, 02:52:04,VALID,1007.16,VALID,0,VALID,104,VALID,0,VALID,22.4099,VALID,139,VALID,0.259375,
2012-05-14, 02:53:04,VALID,1007.16,VALID,0,VALID,104,VALID,0,VALID,22.4082,VALID,139,VALID,0.476953,
2012-05-14, 02:54:04,VALID,1007.18,VALID,0,VALID,104,VALID,0.112112,VALID,22.4082,VALID,139,VALID,0.548828,
2012-05-14, 02:55:04,VALID,1007.19,VALID,0,VALID,104,VALID,0.112112,VALID,22.4082,VALID,139,VALID,0.486719,
2012-05-14, 02:56:04,VALID,1007.21,VALID,0,VALID,104,VALID,0.112112,VALID,22.387,VALID,139,VALID,0.368359,
2012-05-14, 02:57:04,VALID,1007.2,VALID,0,VALID,104,VALID,0.112112,VALID,22.3676,VALID,139,VALID,0.361719,
2012-05-14, 02:58:04,VALID,1007.21,VALID,0,VALID,104,VALID,0,VALID,22.3676,VALID,139,VALID,0.210938,
2012-05-14, 02:59:04,VALID,1007.22,VALID,0,VALID,104,VALID,0.112112,VALID,22.3676,VALID,139,VALID,0.383203,
2012-05-14, 03:00:04,VALID,1007.22,VALID,0,VALID,104,VALID,0.112112,VALID,22.3481,VALID,139,VALID,0.156641,
2012-05-14, 03:01:04,VALID,1007.21,VALID,0,VALID,104,VALID,0.112112,VALID,22.3676,VALID,139,VALID,0.161328,
2012-05-14, 03:02:04,VALID,1007.23,VALID,0,VALID,104,VALID,0,VALID,22.3887,VALID,139,VALID,0.130469,
2012-05-14, 03:03:04,VALID,1007.23,VALID,0,VALID,104,VALID,0.112112,VALID,22.3887,VALID,139,VALID,0.112891,
2012-05-14, 03:04:04,VALID,1007.23,VALID,0,VALID,104,VALID,0.112112,VALID,22.3693,VALID,139,VALID,0.448828,
2012-05-14, 03:05:04,VALID,1007.23,VALID,0,VALID,104,VALID,0.112112,VALID,22.3481,VALID,139,VALID,0.244922,
2012-05-14, 03:06:04,VALID,1007.23,VALID,0,VALID,104,VALID,0,VALID,22.3481,VALID,139,VALID,0.110937,
2012-05-14, 03:07:04,VALID,1007.22,VALID,0,VALID,104,VALID,0,VALID,22.3498,VALID,139,VALID,0.331641,
2012-05-14, 03:08:04,VALID,1007.22,VALID,0,VALID,104,VALID,0,VALID,22.3481,VALID,139,VALID,0.273438,
2012-05-14, 03:09:04,VALID,1007.21,VALID,0,VALID,104,VALID,0.112112,VALID,22.3498,VALID,139,VALID,0,
2012-05-14, 03:10:04,VALID,1007.21,VALID,0,VALID,104,VALID,0,VALID,22.3693,VALID,139,VALID,0,
2012-05-14, 03:11:04,VALID,1007.19,VALID,0,VALID,104,VALID,0.112112,VALID,22.3481,VALID,139,VALID,0,
2012-05-14, 03:12:04,VALID,1007.21,VALID,0,VALID,104,VALID,0.112112,VALID,22.3286,VALID,139,VALID,0,
2012-05-14, 03:13:04,VALID,1007.24,VALID,0,VALID,104,VALID,0.112112,VALID,22.3481,VALID,139,VALID,0,
2012-05-14, 03:14:04,VALID,1007.23,VALID,0,VALID,104,VALID,0.112112,VALID,22.3091,VALID,139,VALID,0,
2012-05-14, 03:15:04,VALID,1007.26,VALID,0,VALID,104,VALID,0.112112,VALID,22.3286,VALID,139,VALID,0,
2012-05-14, 03:16:04,VALID,1007.25,VALID,0,VALID,104,VALID,0.112112,VALID,22.3286,VALID,139,VALID,0,
2012-05-14, 03:17:04,VALID,1007.25,VALID,0,VALID,104,VALID,0.112112,VALID,22.3481,VALID,139,VALID,0,
2012-05-14, 03:18:04,VALID,1007.28,VALID,0,VALID,104,VALID,0.112112,VALID,22.3481,VALID,139,VALID,0,
2012-05-14, 03:19:04,VALID,1007.28,VALID,0,VALID,104,VALID,0.112112,VALID,22.3693,VALID,139,VALID,0,
2012-05-14, 03:20:04,VALID,1007.27,VALID,0,VALID,104,VALID,0.112112,VALID,22.3693,VALID,139,VALID,0,
2012-05-14, 03:21:04,VALID,1007.28,VALID,0,VALID,104,VALID,0.112112,VALID,22.3676,VALID,139,VALID,0,
2012-05-14, 03:22:04,VALID,1007.29,VALID,0,VALID,104,VALID,0.112112,VALID,22.3693,VALID,139,VALID,0,
2012-05-14, 03:23:04,VALID,1007.27,VALID,0,VALID,104,VALID,0,VALID,22.3498,VALID,139,VALID,0,
2012-05-14, 03:24:04,VALID,1007.28,VALID,0,VALID,104,VALID,0,VALID,22.3303,VALID,139,VALID,0,
2012-05-14, 03:25:04,VALID,1007.29,VALID,0,VALID,104,VALID,0,VALID,22.3498,VALID,139,VALID,0.214062,
2012-05-14, 03:26:04,VALID,1007.29,VALID,0,VALID,104,VALID,0,VALID,22.3303,VALID,139,VALID,0.204297,
2012-05-14, 03:27:04,VALID,1007.29,VALID,0,VALID,104,VALID,0,VALID,22.3108,VALID,139,VALID,0.271875,
2012-05-14, 03:28:04,VALID,1007.32,VALID,0,VALID,104,VALID,0,VALID,22.3125,VALID,139,VALID,0.3,
2012-05-14, 03:29:04,VALID,1007.34,VALID,0,VALID,104,VALID,0,VALID,22.3125,VALID,139,VALID,0.211719,
2012-05-14, 03:30:04,VALID,1007.39,VALID,0,VALID,104,VALID,0,VALID,22.2719,VALID,139,VALID,0.194922,
2012-05-14, 03:31:04,VALID,1007.42,VALID,0,VALID,104,VALID,0,VALID,22.293,VALID,139,VALID,0.0589844,
2012-05-14, 03:32:04,VALID,1007.44,VALID,0,VALID,104,VALID,0,VALID,22.2719,VALID,139,VALID,0,
2012-05-14, 03:33:04,VALID,1007.45,VALID,0,VALID,104,VALID,0,VALID,22.293,VALID,139,VALID,0.219531,
2012-05-14, 03:34:04,VALID,1007.49,VALID,0,VALID,104,VALID,0,VALID,22.3108,VALID,139,VALID,0.351563,
2012-05-14, 03:35:04,VALID,1007.5,VALID,0,VALID,104,VALID,0,VALID,22.3498,VALID,138,VALID,0.451953,
2012-05-14, 03:36:04,VALID,1007.5,VALID,0,VALID,104,VALID,0,VALID,22.4099,VALID,118,VALID,0.632031,
2012-05-14, 03:37:04,VALID,1007.5,VALID,0,VALID,104,VALID,0,VALID,22.4082,VALID,109,VALID,0.672266,
2012-05-14, 03:38:04,VALID,1007.53,VALID,0,VALID,104,VALID,0,VALID,22.4099,VALID,107,VALID,0.270703,
2012-05-14, 03:39:04,VALID,1007.51,VALID,0,VALID,104,VALID,0,VALID,22.4082,VALID,107,VALID,0.500781,
2012-05-14, 03:40:04,VALID,1007.52,VALID,0,VALID,104,VALID,0,VALID,22.4277,VALID,107,VALID,0.0773437,
2012-05-14, 03:41:04,VALID,1007.53,VALID,0,VALID,104,VALID,0,VALID,22.4489,VALID,107,VALID,0,
2012-05-14, 03:42:04,VALID,1007.55,VALID,0,VALID,104,VALID,0,VALID,22.4082,VALID,107,VALID,0,
2012-05-14, 03:43:04,VALID,1007.57,VALID,0,VALID,104,VALID,0,VALID,22.4294,VALID,107,VALID,0,
2012-05-14, 03:44:04,VALID,1007.59,VALID,0,VALID,104,VALID,0,VALID,22.4294,VALID,107,VALID,0.509766,
2012-05-14, 03:45:04,VALID,1007.6,VALID,0,VALID,104,VALID,0,VALID,22.4294,VALID,107,VALID,0.279687,
2012-05-14, 03:46:04,VALID,1007.61,VALID,0,VALID,104,VALID,0,VALID,22.4489,VALID,107,VALID,0.442969,
2012-05-14, 03:47:04,VALID,1007.59,VALID,0,VALID,104,VALID,0,VALID,22.4082,VALID,107,VALID,0.448438,
2012-05-14, 03:48:04,VALID,1007.62,VALID,0,VALID,104,VALID,0,VALID,22.4294,VALID,107,VALID,0.417969,
2012-05-14, 03:49:04,VALID,1007.63,VALID,0,VALID,104,VALID,0,VALID,22.4294,VALID,107,VALID,0.203906,
2012-05-14, 03:50:04,VALID,1007.63,VALID,0,VALID,104,VALID,0,VALID,22.4294,VALID,107,VALID,0.350391,
2012-05-14, 03:51:04,VALID,1007.66,VALID,0,VALID,104,VALID,0,VALID,22.4099,VALID,107,VALID,0.242188,
2012-05-14, 03:52:04,VALID,1007.7,VALID,0,VALID,104,VALID,0,VALID,22.4082,VALID,107,VALID,0.358203,
2012-05-14, 03:53:04,VALID,1007.72,VALID,0,VALID,104,VALID,0.112112,VALID,22.4277,VALID,107,VALID,0.658984,